RH
22 21 32 55 43 23 23 14 20 28 37 82 96 86 84 87 86 84 88 77 65 65 66 67 62 67 78 76 27 89 62 74 92 59 28 33 33 60 85 63 41 40 62 48 46 41 40
28 24 46 56 30 23 18 20 23 24 37 92 88 82 82 83 88 87 90 62 76 73 63 65 66 79 82 81 31 98 99 90 95 65 31 43 40 58 98 82 61 54 75 43 43 38 38
33 32 54 55 24 23 16 17 13 17 44 92 82 84 86 86 81 78 81 77 78 65 58 58 72 82 85 60 43 85 99 82 87 69 31 35 54 77 81 98 65 74 64 54 40 34 35
34 39 46 64 24 21 22 19 14 19 54 88 83 82 84 94 55 78 70 78 70 74 73 70 73 85 74 73 57 81 98 86 95 63 37 54 71 81 91 84 59 64 75 74 31 29 33
37 38 49 63 37 18 26 25 14 18 85 87 83 75 81 92 48 46 60 62 69 64 68 79 82 72 70 69 94 87 90 98 84 48 55 71 90 81 77 80 95 84 56 60 61 27 36
38 35 57 68 48 19 27 29 19 13 44 83 58 72 85 85 73 40 52 57 72 54 68 83 89 80 64 71 85 97 91 99 76 56 83 98 99 98 99 89 60 67 64 71 58 46 35
43 37 61 75 49 21 29 33 20 13 20 31 40 52 76 83 86 45 46 67 58 62 79 73 70 74 87 64 98 89 98 86 92 62 99 91 99 84 95 84 66 70 74 60 30 42 32
46 49 65 70 66 23 26 29 22 16 21 29 32 50 74 82 87 54 56 56 76 91 87 72 70 92 100 97 98 97 98 99 74 90 99 94 98 97 100 97 72 80 65 64 47 46 45
39 50 67 70 79 24 21 28 28 20 26 33 54 42 71 80 89 59 62 72 83 90 83 74 73 98 93 97 98 99 99 97 85 96 96 98 97 99 100 97 89 87 73 77 72 59 64
37 47 57 70 84 24 16 28 33 23 35 33 51 55 60 64 75 68 67 57 58 68 94 89 94 98 99 93 96 98 99 98 99 99 96 99 99 97 99 93 86 87 85 75 72 79 60
42 50 52 58 76 39 19 30 38 31 42 50 51 55 66 84 45 50 37 42 76 57 88 96 94 98 98 91 84 98 85 98 98 95 99 99 92 93 99 93 93 95 86 88 88 76 72
48 60 57 56 57 78 24 29 37 44 45 52 63 74 76 77 86 76 72 83 63 67 90 95 98 98 92 100 75 100 98 98 98 96 99 98 99 99 98 99 100 93 94 97 83 79 75
61 66 62 60 54 72 26 16 33 40 39 44 58 70 76 78 69 63 57 51 67 91 93 85 98 98 100 99 100 95 97 99 98 98 98 99 99 98 99 99 99 97 98 89 82 89 60
81 74 70 60 59 73 38 19 31 38 37 53 57 56 51 53 58 53 48 54 89 98 100 88 98 99 97 100 99 96 99 93 86 95 100 98 99 99 99 93 94 97 98 74 59 53 44
86 80 75 61 70 76 48 24 17 31 34 50 55 50 39 44 47 46 44 48 93 79 87 99 98 97 98 99 96 99 99 87 96 95 93 96 98 99 100 92 90 95 96 75 49 59 64
97 79 78 69 74 78 59 24 17 26 32 43 54 55 50 40 49 48 38 59 76 82 91 84 87 92 99 89 98 98 92 83 83 80 68 79 98 100 97 92 90 86 80 76 68 65 49
92 82 83 72 76 73 94 33 25 14 29 40 46 55 62 54 46 66 80 91 72 80 79 78 79 86 96 81 80 82 83 82 84 80 69 68 79 99 99 95 96 86 87 69 66 50 34
82 83 75 69 73 69 69 85 44 23 20 34 40 48 52 58 48 56 95 89 86 83 73 73 79 70 79 82 88 78 71 75 78 81 84 72 68 98 97 89 87 85 79 64 66 73 70
78 75 73 68 70 74 73 73 74 36 15 29 39 42 51 59 61 54 74 90 85 76 69 72 78 76 67 75 81 78 72 65 81 77 76 66 71 97 98 96 92 91 79 71 58 53 64
75 75 76 77 76 74 72 74 74 82 26 11 36 42 62 68 75 70 65 76 84 75 66 64 66 69 75 76 69 76 73 72 87 83 75 66 62 64 65 71 75 80 71 76 75 67 64
72 78 77 76 74 75 76 75 70 84 29 21 26 44 53 72 83 84 84 80 80 79 72 69 67 65 67 68 64 70 77 73 72 75 80 74 68 64 62 65 69 72 73 74 72 67 62
70 80 78 78 76 74 78 74 72 80 35 25 12 42 54 82 84 87 91 84 77 78 77 71 72 68 67 70 70 67 74 68 67 71 93 81 72 67 66 65 68 69 72 74 73 80 68
72 80 79 77 75 73 69 77 80 86 55 26 22 20 53 82 84 92 96 89 79 74 76 75 72 75 76 75 75 75 75 75 73 68 74 88 81 70 78 72 75 72 54 58 57 52 46
71 79 76 75 73 72 70 74 86 89 92 30 26 17 42 75 96 96 94 87 88 93 85 85 84 84 80 82 83 82 88 85 86 84 82 91 91 83 90 78 81 59 82 77 61 54 56
68 70 71 74 75 74 75 76 83 83 66 91 41 34 21 42 88 99 96 92 90 87 91 97 96 93 95 95 93 97 97 96 95 94 92 91 91 88 95 88 66 64 86 76 60 67 88
65 73 69 76 74 74 80 82 85 87 84 78 36 44 65 38 31 98 99 96 97 95 92 94 98 100 100 97 95 92 89 98 92 90 90 93 94 98 89 85 60 85 91 91 90 97 86
61 73 70 73 74 77 87 88 90 90 82 46 32 25 39 78 40 59 100 99 98 99 96 88 86 100 99 93 97 96 92 92 96 92 87 96 97 99 94 83 78 89 86 95 98 100 98
67 73 73 72 72 78 86 88 92 58 34 24 20 20 26 26 46 44 99 98 98 96 97 87 86 87 98 99 95 91 94 85 87 83 85 95 95 96 97 90 81 67 91 97 99 98 98
77 77 74 71 72 79 90 91 89 49 20 26 24 64 48 16 7 12 90 98 85 96 94 87 86 81 78 93 92 92 93 94 86 91 86 96 92 94 89 83 80 93 95 99 98 98 97
Wind_Speed
37 41 45 41 34 35 38 41 38 35 33 28 26 27 30 31 29 24 21 19 15 14 14 18 22 25 23 27 40 23 29 32 34 36 36 35 35 38 34 37 40 41 28 37 32 32 28
38 42 44 39 36 37 41 39 36 33 31 25 27 29 30 28 25 20 16 14 11 8 10 15 19 22 24 26 43 23 18 35 34 38 36 33 36 35 29 26 35 35 29 30 34 28 32
38 42 41 38 36 39 41 39 36 33 28 25 25 27 28 26 20 18 12 10 7 5 7 10 13 19 23 20 36 45 28 22 34 35 34 33 31 33 28 24 32 17 24 31 27 31 33
38 42 42 39 38 40 39 40 39 35 29 26 27 29 29 24 19 16 9 9 6 5 9 10 12 14 22 16 32 55 49 19 28 33 29 27 27 28 20 21 22 26 18 17 30 32 32
37 42 43 40 39 41 38 39 40 36 29 28 30 30 27 21 15 10 7 8 6 10 14 13 11 14 16 17 35 30 45 22 26 31 28 27 27 28 27 21 16 22 17 26 15 24 28
36 41 43 40 38 41 37 40 41 38 32 29 28 27 27 19 12 7 5 7 8 12 14 14 13 9 10 20 29 28 26 31 31 32 32 32 33 29 25 26 28 27 24 19 21 20 22
37 41 42 39 37 40 36 38 38 37 34 33 31 29 24 16 10 5 6 7 10 17 11 7 5 10 12 33 22 30 29 30 26 34 37 38 26 39 31 28 11 16 22 13 15 24 23
35 40 41 41 35 38 35 36 38 35 32 35 37 28 22 13 4 4 4 10 14 13 8 6 8 15 17 23 27 23 34 24 37 40 36 35 33 26 23 24 15 14 16 15 16 15 19
34 37 40 41 33 36 35 34 36 31 30 31 37 33 24 13 5 3 9 14 10 1 2 6 13 18 19 16 19 28 29 14 36 38 38 36 29 24 26 23 20 13 16 16 10 14 13
33 34 39 41 35 34 34 32 33 33 32 29 29 39 30 22 6 6 9 10 10 10 7 5 22 14 20 13 15 25 22 31 25 30 41 18 29 25 24 24 20 17 17 14 12 8 5
31 33 37 39 39 31 33 29 29 32 31 32 31 33 30 35 19 14 14 12 15 5 4 3 4 7 14 16 17 27 23 10 20 23 14 13 29 28 26 27 22 14 17 13 10 7 3
31 32 36 38 38 29 30 26 26 28 31 30 32 30 26 27 21 14 13 12 10 5 8 7 11 18 19 19 23 21 10 11 13 14 18 13 20 31 31 35 28 18 18 11 7 4 4
32 33 36 37 37 33 26 25 23 24 30 32 30 30 24 20 18 22 21 17 13 9 8 6 12 20 24 19 17 19 16 13 10 13 17 19 14 9 20 21 28 22 18 6 3 4 2
32 33 37 37 38 34 22 23 20 20 27 29 27 27 23 18 18 21 19 18 15 9 9 7 21 19 21 22 16 20 17 12 9 10 18 5 8 10 18 20 16 22 10 3 4 4 3
31 33 36 35 37 31 18 20 19 17 20 24 24 22 21 17 16 13 12 15 5 10 8 18 15 18 13 17 14 12 19 16 12 14 4 6 6 10 9 8 20 16 8 7 5 2 1
31 32 33 33 35 31 17 18 18 16 15 18 19 17 21 17 13 16 18 15 13 19 25 11 6 9 10 18 15 6 8 11 10 10 5 9 9 11 12 11 10 11 12 5 5 4 4
30 30 31 31 32 30 21 19 17 16 12 13 16 14 16 14 7 14 26 18 23 16 12 2 5 12 14 17 14 7 7 12 10 12 7 11 5 10 12 9 12 12 12 6 7 3 2
28 29 29 29 30 30 25 22 17 15 12 10 12 12 17 9 6 9 15 16 17 7 5 6 6 13 18 15 13 9 8 6 12 11 8 7 6 7 9 9 12 15 12 11 4 4 4
27 29 28 30 30 30 27 25 22 14 12 8 9 10 12 8 3 7 11 11 9 6 4 6 9 8 14 17 6 9 10 5 15 12 9 9 7 9 6 7 13 15 18 17 13 5 6
28 29 30 30 30 29 27 24 22 12 12 10 7 5 5 5 3 8 8 8 4 6 5 3 11 8 11 12 9 12 11 10 11 12 9 10 8 3 4 2 5 11 16 20 18 7 6
29 30 32 33 33 30 28 25 22 14 9 9 7 6 3 1 2 6 7 7 7 4 3 6 8 8 10 9 9 9 14 14 10 12 13 9 6 5 3 3 2 2 6 16 22 22 9
30 32 34 33 33 30 28 24 21 15 7 7 7 8 6 5 3 4 4 5 9 8 6 8 5 9 10 4 3 6 15 14 11 11 17 15 4 5 4 7 9 13 13 13 14 21 26
31 31 34 34 31 29 27 24 19 12 8 6 6 8 10 8 8 7 6 3 4 7 8 8 7 9 10 6 5 2 10 8 8 10 14 16 11 4 3 5 6 12 17 21 19 14 13
32 32 34 34 31 28 26 20 14 11 11 8 4 6 11 12 12 13 9 8 6 2 6 8 9 8 7 6 6 9 9 8 4 6 7 9 12 10 3 2 4 4 2 5 13 16 13
32 33 33 33 31 26 22 19 14 11 12 13 10 8 8 13 16 15 14 12 8 8 9 8 7 7 8 9 11 8 7 5 4 5 10 9 10 3 2 5 8 6 5 4 10 11 11
32 33 34 32 29 25 21 20 16 15 12 12 11 15 16 12 14 20 18 16 13 13 12 9 8 9 11 12 8 5 5 5 5 6 11 13 10 5 1 3 3 4 11 9 12 11 11
33 33 33 30 27 25 21 17 14 15 16 14 17 18 20 22 16 19 20 19 17 15 14 10 9 13 11 10 6 4 4 7 6 7 9 11 12 11 9 5 7 10 13 12 8 8 14
36 33 32 28 24 21 17 15 14 15 19 22 23 25 27 30 23 21 25 23 19 17 13 13 12 13 11 11 6 5 5 7 6 8 7 11 8 7 8 6 7 12 17 12 9 10 8
36 33 30 25 22 20 16 18 17 19 24 26 21 19 20 21 16 25 33 22 23 18 15 10 10 8 11 9 9 6 5 7 9 5 12 7 11 6 10 6 6 10 13 15 9 9 8
Wind_Direction
342 346 345 344 342 343 345 340 339 337 335 331 329 324 317 313 313 306 290 290 278 270 273 267 258 254 255 249 208 195 217 213 205 205 202 206 201 201 205 207 210 211 222 222 225 225 230
343 346 345 345 345 348 344 341 340 339 338 338 330 322 323 319 314 311 296 285 277 289 289 271 256 248 235 243 206 177 180 199 199 205 197 202 204 200 204 209 211 216 218 222 226 226 232
345 347 348 346 347 348 346 345 343 342 342 341 329 324 322 323 314 311 287 275 284 307 311 292 267 247 235 231 208 195 194 194 195 203 198 198 207 196 206 208 212 205 217 225 225 228 235
346 347 347 346 347 349 353 351 347 346 348 347 334 326 319 318 308 308 271 262 279 322 300 290 271 256 239 227 199 201 211 186 189 190 195 195 202 199 205 210 210 211 216 212 228 226 229
345 347 348 346 346 351 355 351 352 351 349 344 332 325 321 315 314 298 254 257 279 308 306 274 280 255 252 214 174 188 203 191 191 187 179 188 190 196 201 193 174 194 211 214 231 225 228
344 347 347 348 348 352 355 355 355 350 354 345 340 333 323 313 304 290 254 249 279 313 301 279 263 248 230 184 188 181 185 189 187 183 175 185 180 183 186 186 196 197 200 207 210 217 223
344 347 346 351 350 352 356 358 355 354 2 359 348 338 331 317 294 280 253 267 296 312 300 272 217 200 178 173 172 185 179 174 180 181 180 188 200 189 193 194 210 193 192 199 213 227 230
343 347 346 350 350 351 355 360 359 0 10 13 6 357 351 344 305 313 263 295 304 298 293 237 192 166 156 169 166 167 162 172 174 180 183 188 208 195 192 189 190 176 185 192 208 220 225
342 348 347 349 352 352 356 2 3 4 19 17 22 14 12 22 20 355 331 332 331 122 116 149 165 152 157 172 168 147 179 184 176 184 186 195 207 194 190 191 192 189 184 185 192 204 229
341 345 345 348 352 353 357 2 6 7 12 13 22 36 34 20 36 19 12 26 80 99 87 95 157 142 137 160 172 149 164 151 167 180 192 195 190 192 189 188 181 183 189 192 198 182 221
339 345 345 347 356 354 357 1 9 9 17 16 19 20 28 32 39 48 75 76 31 44 77 109 61 94 127 139 167 157 173 99 152 179 151 176 184 185 186 189 180 191 189 195 193 196 251
335 344 346 343 351 348 356 358 9 12 11 7 10 13 11 6 29 44 43 38 54 46 36 20 57 119 135 130 159 160 162 125 113 104 129 133 155 166 175 194 188 186 181 180 175 189 236
333 343 342 343 345 348 352 356 2 9 9 8 11 13 19 25 51 62 65 73 67 50 21 45 54 100 128 140 152 166 159 141 124 132 126 130 113 131 178 161 169 186 159 135 178 197 243
334 340 338 340 344 348 350 355 355 3 9 11 14 18 15 31 59 69 76 73 58 47 84 79 100 111 125 135 132 150 148 126 156 134 137 117 118 143 157 143 155 157 169 193 181 189 142
335 340 337 338 344 347 352 357 353 355 9 9 13 28 23 23 40 85 87 65 90 99 90 123 102 126 96 159 151 149 115 137 137 129 125 119 106 129 142 140 155 167 201 193 117 127 237
334 340 339 341 344 349 348 355 354 345 3 9 12 16 31 27 53 101 100 91 109 100 123 104 113 138 128 152 154 124 127 152 136 133 133 146 120 152 159 162 183 178 196 176 196 179 226
335 338 340 341 342 344 335 345 352 344 337 3 4 10 8 26 65 113 94 105 132 107 132 157 148 153 153 152 164 123 145 168 165 164 111 147 134 160 173 192 196 184 190 198 174 182 268
333 338 339 338 341 339 338 326 337 341 327 332 351 1 6 28 55 125 91 111 129 119 97 120 145 168 158 159 165 177 166 168 182 180 184 185 132 147 195 208 205 206 210 201 190 187 213
336 336 335 332 335 335 331 329 329 329 332 306 319 348 3 21 109 153 127 104 129 131 84 126 152 156 180 178 161 183 182 202 193 184 188 178 166 138 166 226 221 219 218 214 219 216 208
335 335 334 332 331 327 322 324 326 315 319 323 289 315 359 28 105 149 160 168 120 118 102 140 173 184 174 183 198 206 204 182 189 200 200 184 170 165 151 158 193 207 221 216 216 210 210
336 336 334 333 332 329 324 323 320 319 309 322 269 259 282 223 115 180 191 203 214 217 228 168 184 182 185 193 211 220 202 203 208 209 204 199 195 206 228 247 246 207 221 219 222 222 206
337 333 333 331 331 330 324 324 322 313 294 313 291 247 236 194 157 152 191 221 219 227 226 216 212 189 183 196 212 241 209 211 206 215 210 210 200 220 263 259 255 255 244 234 229 230 236
336 334 332 330 332 329 325 325 322 305 273 294 308 257 239 215 193 179 181 203 205 206 219 213 211 208 213 211 210 209 185 212 223 232 216 212 220 217 240 249 271 275 250 238 234 234 231
333 334 331 330 330 329 330 331 325 315 287 282 292 295 244 221 198 196 194 175 148 174 168 174 183 189 213 209 200 165 152 165 163 185 183 208 222 214 239 226 235 222 211 242 229 228 219
334 333 330 328 329 326 325 329 316 305 293 283 271 282 277 244 220 205 200 195 196 168 172 183 187 198 176 160 145 138 161 183 212 192 184 193 191 194 221 235 281 244 197 97 156 170 175
334 333 331 329 329 325 320 318 308 303 292 276 282 276 271 270 235 216 207 205 198 194 193 202 192 185 175 164 168 168 181 183 189 189 201 203 212 219 214 268 247 199 177 172 158 175 166
336 333 332 332 329 323 317 313 305 299 297 289 284 283 275 264 248 224 206 205 201 197 203 196 196 188 191 194 189 176 186 183 178 190 202 200 217 225 231 255 281 188 195 198 184 166 204
335 335 333 332 330 329 321 315 308 300 302 297 293 284 275 265 247 235 199 186 191 200 203 203 189 206 210 212 211 207 197 197 204 209 214 202 201 211 215 228 255 201 201 204 207 191 200
331 334 330 330 331 326 322 315 306 308 306 301 295 284 279 267 248 224 201 183 185 183 183 187 198 198 205 199 205 204 193 201 206 220 223 222 205 206 203 230 229 195 212 206 215 204 221